[Iaude] MPEC S220: 2023 SR6 [a=1.78,e=0.44,i=8.6,H=25.6]
    mpec at marsden.cfa.harvard.edu 
    mpec at marsden.cfa.harvard.edu
       
    Mon Sep 25 23:03:57 EDT 2023
    
    
  
M.P.E.C. 2023-S220                           Issued 2023 September 26, 03:02 UT
     The Minor Planet Electronic Circulars contain information on unusual
         minor planets, routine data on comets and natural satellites,
         and occasional editorial announcements.  They are published
    on behalf of Division F of the International Astronomical Union by the
          Minor Planet Center, Smithsonian Astrophysical Observatory,
                          Cambridge, MA 02138, U.S.A.
			  
             Prepared using the Tamkin Foundation Computer Network
                              MPC at CFA.HARVARD.EDU
            URL https://www.minorplanetcenter.net/    ISSN 1523-6714
                                    2023 SR6                                    
Observations:
     K23S06R*1C2023 09 24.44443604 53 20.900+07 19 46.74         19.27GVES220703
     K23S06R 1C2023 09 24.44983104 53 15.803+07 23 42.83         19.16GVES220703
     K23S06R 1C2023 09 24.45522704 53 10.644+07 27 43.52         20.45GVES220703
     K23S06R 1C2023 09 24.46062704 53 05.456+07 31 38.75         19.16GVES220703
     K23S06R mC2023 09 24.49274004 52 35.058+07 54 55.51               VES220I52
     K23S06R mC2023 09 24.49291304 52 34.892+07 55 02.39         19.31GVES220I52
     K23S06R mC2023 09 24.49308304 52 34.734+07 55 09.52         19.10GVES220I52
     K23S06R mC2023 09 24.49325304 52 34.583+07 55 17.15         18.71GVES220I52
     K23S06R KB2023 09 24.98128604 46 58.14 +13 20 48.6          19.1 GVES220I93
     K23S06R KB2023 09 24.98602204 46 54.68 +13 23 48.0          19.6 GVES220I93
     K23S06R KB2023 09 24.99069904 46 51.21 +13 26 44.5          18.9 GVES220I93
     K23S06R KC2023 09 25.35340704 42 46.52 +17 01 26.7          19.8 GXES220858
     K23S06R KC2023 09 25.35978204 42 41.74 +17 05 01.4          19.7 GXES220858
     K23S06R mC2023 09 25.36692504 42 38.318+17 09 13.82         19.37GVES220I52
     K23S06R KC2023 09 25.36698604 42 36.27 +17 09 04.0          19.9 GXES220858
     K23S06R mC2023 09 25.36712104 42 38.185+17 09 20.38         18.90GVES220I52
     K23S06R mC2023 09 25.36730204 42 38.027+17 09 26.60         18.90GVES220I52
     K23S06R mC2023 09 25.36748404 42 37.904+17 09 32.80         18.67GVES220I52
     K23S06R  C2023 09 25.47943604 41 14.054+18 10 36.17         19.7 GVES220654
     K23S06R  C2023 09 25.48371204 41 10.716+18 12 53.35         19.7 GVES220654
     K23S06R KC2023 09 26.05062404 35 43.13 +22 48 01.2          19.6 GVES220L01
     K23S06R KC2023 09 26.05210904 35 42.13 +22 48 41.8          19.6 GVES220L01
     K23S06R KC2023 09 26.05359204 35 41.15 +22 49 22.2          19.8 GVES220L01
     K23S06R KC2023 09 26.05507404 35 40.15 +22 50 02.6          19.9 GVES220L01
     K23S06R KC2023 09 26.05655904 35 39.16 +22 50 42.5          19.9 GVES220L01
     K23S06R KC2023 09 26.07738404 35 29.97 +23 00 00.0          18.9 GXES220958
     K23S06R KC2023 09 26.08168504 35 27.23 +23 01 55.2          19.4 GXES220958
     K23S06R KC2023 09 26.08598504 35 24.31 +23 03 49.3          18.8 GXES220958
Observer details:
654 Table Mountain Observatory, Wrightwood-PHMC.  Observers N. Evans, P. Choi,
    N. Saini, C. Zhai, R. Trahan, M. Shao.  1.0-m Reflector + CCD.
703 Catalina Sky Survey.  Observer A. Serrano.  Measurers E. J. Christensen,
    D. Fay, J. B. Fazekas, D. C. Fuls, A. R. Gibbs, A. D. Grauer, H. Groeller,
    J. K. Hogan, R. A. Kowalski, S. M. Larson, G. J. Leonard, D. Rankin, R. L.
    Seaman, A. Serrano, F. C. Shelly, K. W. Wierzchos.  0.68-m Schmidt + 10K
    CCD.
858 Tebbutt Observatory, Edgewood.  Observer F. B. Zoltowski.  0.51-m f/8.1
    Schmidt-Cassegrain + CCD.
958 Observatoire de Dax.  Observers P. Dupouy, J. B. de Vanssay.  Measurer P.
    Dupouy.  0.43-m f/2.7 Reflector + CCD.
I52 Steward Observatory, Mt. Lemmon Station.  Observer A. Serrano.  Measurers
    E. J. Christensen, D. Fay, J. B. Fazekas, D. C. Fuls, A. R. Gibbs, A. D.
    Grauer, H. Groeller, J. K. Hogan, R. A. Kowalski, S. M. Larson, G. J.
    Leonard, D. Rankin, R. L. Seaman, A. Serrano, F. C. Shelly, K. W.
    Wierzchos.  1.0-m prime focus + CCD.
I93 St Pardon de Conques.  Observer F. Losse.  0.40-m f/3.7 reflector + CMO.
L01 Visnjan Observatory, Tican.  Observers K. Korlevic, L. Poropat.  Measurer
    K. Korlevic.  1.0-m f/2.9 reflector + CCD.
Orbital elements:
2023 SR6                                                 Earth MOID = 0.0072 AU
Epoch 2023 Sept. 13.0 TT = JDT 2460200.5                Veres                   
M   0.42683              (2000.0)            P               Q                  
n   0.41412024     Peri.  343.53053     +0.97428943     +0.22511581             
a   1.7825912      Node     3.49833     -0.18619475     +0.82728762             
e   0.4397956      Incl.    8.58511     -0.12685273     +0.51470191             
P   2.38           H   25.68          G   0.15           U   8                  
Residuals in seconds of arc
230924 703  0.0   0.9+    230924 I93  0.2-  0.4+    230926 L01  0.1-  1.2-
230924 703  0.2+  0.3-    230925 858  0.2-  0.6+    230926 L01  0.3-  0.9-
230924 703  0.4-  3.4+    230925 858  0.1+  0.3+    230926 L01  0.2-  0.6-
230924 703  1.2-  2.0+    230925 I52  0.0   0.0     230926 L01  0.4-  0.3-
230924 I52  0.0   0.0     230925 858  0.2-  0.6+    230926 L01  0.4-  0.6-
230924 I52  0.0   0.6-    230925 I52  0.2+  0.0     230926 958  0.4-  0.9+
230924 I52  0.1+  0.8-    230925 I52  0.1-  0.1+    230926 958  0.8+  0.3+
230924 I52  0.2+  0.6-    230925 I52  0.1+  0.2+    230926 958  0.4-  1.2-
230924 I93  0.1+  0.2+    230925 654  0.1+  0.2+
230924 I93  0.2+  0.5+    230925 654  0.1-  0.0
Ephemeris:
2023 SR6                 a,e,i = 1.78, 0.44, 9                   q = 0.9986
Date    TT    R. A. (2000) Decl.     Delta      r    Elong.  Phase     V
2023 08 27    14 31 50.8 -65 42 44   0.1187  1.0150    88.8    84.5    24.0
...
2023 09 11    13 18 50.2 -72 16 28   0.05417 0.9987    79.7    97.3    22.8
...
2023 09 19    07 31 10.8 -66 48 19   0.02146 1.0018    81.4    97.4    20.8
...
2023 09 25    04 46 24.0 +13 36 47   0.01922 1.0096   109.2    69.8    19.6
2023 09 26    04 36 01.2 +22 27 43   0.02244 1.0113   111.7    67.1    19.8
2023 09 27    04 27 28.4 +28 56 25   0.02608 1.0132   113.4    65.3    20.1
...
2023 10 03    03 56 23.0 +45 51 39   0.05126 1.0267   119.1    58.4    21.4
...
2023 10 11    03 34 30.5 +51 56 34   0.08696 1.0510   125.1    51.0    22.4
...
2023 10 26    03 06 49.0 +53 38 06   0.1562  1.1126   136.4    38.0    23.4
M. P. C. Staff               (C) Copyright 2023 MPC           M.P.E.C. 2023-S220
    
    
More information about the Iaude
mailing list